Temp
-10 -10 -10 -11 -11 -11 -11 -12 -12 -12 -12 -12 -12 -12 -12 -12 -12 -13 -13 -13 -13 -13 -13 -13 -12 -12 -12 -12 -12 -12 -12 -12
-10 -10 -11 -11 -11 -11 -12 -12 -12 -12 -12 -12 -12 -12 -12 -12 -13 -13 -13 -13 -13 -13 -13 -13 -13 -12 -12 -13 -13 -13 -12 -12
-11 -11 -11 -12 -12 -12 -12 -12 -12 -12 -12 -13 -13 -13 -12 -13 -13 -13 -13 -13 -13 -13 -13 -13 -13 -13 -13 -13 -13 -13 -13 -13
-11 -11 -11 -12 -12 -12 -12 -12 -12 -12 -13 -13 -13 -13 -13 -13 -13 -13 -13 -13 -13 -13 -13 -13 -13 -13 -13 -13 -13 -13 -13 -13
-10 -11 -11 -12 -12 -13 -13 -13 -13 -13 -13 -13 -13 -13 -13 -13 -13 -13 -14 -14 -14 -14 -14 -13 -13 -13 -13 -13 -13 -13 -13 -13
-10 -11 -12 -12 -13 -13 -13 -13 -13 -13 -13 -13 -13 -13 -13 -14 -14 -14 -14 -14 -14 -14 -14 -14 -14 -14 -14 -14 -14 -14 -14 -14
-11 -12 -12 -12 -13 -13 -13 -13 -13 -13 -13 -13 -13 -14 -14 -14 -14 -14 -14 -14 -14 -14 -14 -14 -14 -14 -14 -14 -14 -14 -14 -14
-11 -12 -12 -13 -13 -13 -13 -13 -13 -14 -14 -13 -14 -14 -14 -14 -14 -14 -14 -14 -14 -14 -14 -14 -14 -14 -14 -14 -14 -14 -14 -14
-12 -12 -12 -13 -13 -13 -13 -13 -13 -13 -13 -13 -14 -14 -14 -14 -14 -14 -14 -14 -14 -15 -15 -15 -15 -15 -15 -14 -14 -14 -14 -14
-11 -12 -12 -13 -13 -13 -14 -13 -13 -13 -13 -13 -13 -14 -14 -14 -14 -14 -14 -14 -15 -15 -15 -15 -15 -15 -15 -15 -15 -15 -14 -14
-11 -12 -12 -13 -13 -13 -13 -13 -13 -13 -13 -13 -13 -13 -14 -14 -14 -14 -14 -15 -15 -15 -16 -16 -15 -15 -15 -15 -15 -15 -15 -15
-12 -12 -12 -13 -13 -13 -13 -13 -13 -13 -13 -13 -14 -14 -14 -14 -14 -14 -14 -15 -15 -15 -15 -15 -15 -15 -15 -14 -14 -15 -15 -15
-12 -12 -12 -13 -13 -13 -13 -13 -13 -13 -14 -14 -14 -14 -14 -14 -14 -14 -15 -15 -15 -15 -15 -15 -15 -15 -15 -15 -15 -15 -16 -16
-12 -12 -12 -12 -12 -12 -12 -13 -13 -13 -13 -13 -14 -14 -14 -14 -14 -14 -15 -15 -15 -15 -15 -15 -15 -15 -16 -16 -16 -17 -17 -16
-12 -12 -12 -12 -12 -12 -12 -12 -13 -13 -13 -13 -14 -14 -14 -14 -14 -14 -15 -15 -15 -15 -15 -15 -15 -16 -16 -16 -17 -17 -17 -17
-12 -12 -12 -12 -12 -12 -12 -12 -13 -13 -13 -14 -14 -14 -14 -15 -14 -14 -15 -15 -15 -15 -15 -15 -15 -16 -16 -16 -17 -17 -17 -16
-12 -12 -12 -12 -12 -12 -12 -13 -13 -13 -13 -13 -13 -14 -14 -14 -15 -15 -15 -15 -15 -15 -15 -15 -15 -16 -16 -16 -17 -17 -17 -17
-12 -12 -12 -12 -12 -12 -12 -12 -13 -13 -12 -12 -13 -13 -14 -14 -15 -15 -15 -15 -15 -15 -15 -15 -16 -16 -16 -16 -16 -17 -17 -17
-12 -12 -12 -12 -12 -12 -12 -12 -12 -12 -13 -12 -12 -13 -14 -14 -15 -15 -15 -15 -16 -16 -16 -16 -16 -16 -16 -16 -17 -17 -17 -17
-12 -12 -12 -12 -12 -12 -12 -12 -12 -12 -13 -13 -13 -13 -14 -14 -14 -15 -15 -16 -16 -16 -16 -16 -16 -16 -16 -16 -17 -17 -17 -17
Height
5841 5840 5840 5839 5839 5839 5839 5838 5838 5837 5837 5837 5837 5837 5837 5836 5836 5836 5835 5834 5833 5831 5829 5827 5825 5823 5821 5819 5817 5815 5812 5811
5840 5839 5838 5838 5837 5837 5837 5836 5837 5836 5836 5835 5835 5835 5835 5834 5834 5833 5833 5832 5830 5829 5827 5825 5823 5821 5819 5817 5815 5814 5812 5811
5838 5837 5836 5836 5836 5836 5836 5835 5834 5834 5834 5834 5834 5834 5833 5832 5832 5831 5831 5830 5828 5827 5825 5823 5820 5818 5817 5815 5813 5812 5811 5809
5836 5836 5835 5834 5834 5834 5834 5834 5833 5833 5832 5832 5832 5833 5832 5832 5831 5830 5829 5828 5827 5825 5823 5821 5818 5816 5813 5812 5810 5809 5809 5808
5834 5833 5832 5832 5832 5832 5832 5832 5833 5832 5831 5831 5831 5831 5831 5830 5829 5828 5827 5826 5824 5823 5821 5819 5816 5813 5811 5810 5808 5806 5805 5805
5831 5830 5829 5829 5829 5830 5830 5831 5831 5831 5830 5829 5829 5829 5829 5828 5827 5827 5825 5824 5823 5821 5819 5816 5813 5811 5809 5807 5805 5803 5801 5800
5828 5827 5828 5828 5828 5829 5829 5829 5830 5830 5829 5828 5828 5827 5827 5826 5825 5824 5823 5822 5820 5819 5817 5814 5811 5808 5806 5803 5801 5799 5797 5795
5825 5826 5826 5826 5826 5827 5827 5827 5827 5827 5827 5826 5825 5825 5824 5823 5823 5822 5821 5819 5818 5816 5814 5812 5809 5806 5803 5800 5798 5795 5794 5793
5824 5824 5824 5824 5825 5825 5825 5825 5825 5824 5824 5823 5823 5822 5821 5821 5820 5819 5818 5816 5814 5812 5810 5808 5806 5803 5800 5796 5793 5791 5791 5790
5824 5823 5823 5824 5823 5824 5824 5824 5823 5822 5822 5821 5820 5820 5820 5819 5818 5817 5815 5813 5811 5809 5807 5805 5803 5800 5797 5793 5790 5787 5786 5786
5824 5823 5822 5822 5822 5821 5822 5821 5821 5820 5820 5819 5819 5818 5817 5817 5815 5814 5812 5810 5808 5807 5805 5802 5800 5797 5793 5790 5787 5784 5781 5780
5823 5822 5820 5820 5820 5820 5820 5820 5819 5818 5817 5817 5816 5815 5814 5813 5812 5811 5809 5807 5806 5804 5802 5800 5797 5794 5789 5785 5781 5778 5776 5774
5822 5821 5820 5819 5818 5818 5818 5818 5817 5815 5814 5814 5814 5812 5811 5810 5810 5808 5807 5805 5804 5802 5800 5797 5794 5790 5785 5779 5775 5773 5771 5769
5821 5820 5819 5818 5818 5817 5817 5815 5815 5813 5812 5811 5811 5810 5809 5809 5808 5806 5804 5803 5802 5800 5798 5795 5791 5787 5781 5776 5773 5771 5765 5764
5819 5818 5818 5817 5816 5816 5815 5814 5813 5811 5810 5809 5808 5808 5807 5807 5806 5804 5802 5801 5799 5798 5795 5793 5790 5785 5780 5774 5770 5767 5765 5760
5817 5816 5816 5816 5815 5814 5813 5812 5810 5809 5808 5806 5805 5805 5805 5805 5803 5802 5800 5799 5797 5795 5793 5791 5788 5783 5778 5772 5768 5764 5760 5758
5815 5814 5814 5813 5813 5812 5810 5809 5807 5806 5805 5804 5803 5803 5803 5802 5801 5799 5798 5796 5794 5792 5790 5787 5785 5781 5776 5771 5766 5762 5758 5753
5812 5812 5811 5810 5810 5809 5808 5806 5804 5803 5803 5802 5801 5801 5801 5800 5798 5796 5795 5794 5792 5789 5786 5783 5780 5777 5773 5768 5763 5759 5755 5751
5809 5809 5808 5808 5807 5806 5805 5804 5803 5801 5800 5800 5799 5798 5798 5797 5795 5794 5792 5790 5788 5786 5783 5779 5776 5773 5769 5765 5760 5756 5752 5748
5806 5806 5805 5805 5804 5804 5803 5802 5801 5799 5797 5797 5797 5796 5794 5793 5792 5790 5789 5786 5784 5782 5779 5776 5773 5769 5765 5761 5756 5752 5749 5745
Wind_Speed
11 10 11 11 11 11 12 12 13 13 11 10 10 11 11 12 13 14 15 14 14 15 16 17 17 17 18 18 19 20 16 11
13 11 12 12 13 13 14 14 13 13 13 12 12 12 12 14 13 14 15 15 16 16 17 18 18 18 18 19 18 18 15 12
15 13 12 13 13 13 14 14 14 14 14 13 13 12 13 15 14 13 14 15 15 16 17 18 19 19 19 19 18 17 16 12
19 16 15 13 13 14 14 14 12 13 13 12 13 13 13 14 14 14 14 15 16 16 17 18 20 21 20 21 21 18 17 13
25 19 14 13 13 13 13 12 11 12 11 11 11 13 13 13 14 14 15 16 16 17 18 19 20 21 20 20 20 21 20 16
24 19 15 12 12 12 12 12 12 13 12 10 11 11 13 14 14 14 15 16 16 18 19 20 21 21 20 20 19 22 21 19
22 17 13 12 11 11 11 11 12 12 12 11 11 11 12 13 14 15 16 17 18 19 21 20 20 20 20 20 20 22 22 19
19 12 11 10 8 10 10 11 10 11 12 12 13 11 12 13 14 15 17 19 20 19 21 20 20 20 21 21 21 21 20 15
11 8 10 7 5 9 8 9 12 10 11 12 13 13 13 12 14 16 18 19 20 20 21 19 21 26 25 24 25 23 19 17
10 9 8 7 7 7 8 11 10 10 11 12 13 13 13 13 15 17 17 18 19 22 20 22 24 24 23 24 25 24 24 20
14 13 11 10 9 9 8 9 12 11 14 14 14 13 13 13 14 15 16 17 19 21 21 23 22 26 26 26 26 24 24 26
14 12 8 10 10 9 11 14 12 14 16 15 14 14 13 12 14 14 16 18 19 20 20 23 25 25 28 28 28 25 24 24
12 10 9 7 10 12 12 12 13 15 16 15 14 15 14 14 14 13 16 18 17 17 21 23 22 26 29 28 27 23 24 23
8 8 8 8 8 9 10 9 9 11 11 12 15 14 13 14 13 15 17 15 15 19 19 22 26 29 30 27 21 21 27 25
7 5 6 7 8 10 10 10 11 13 12 12 13 14 13 13 15 16 15 13 15 17 20 24 29 31 31 28 24 23 21 26
9 8 8 8 8 7 8 11 15 14 15 13 14 13 12 13 15 16 16 15 16 19 21 24 27 32 33 31 27 25 26 23
10 9 10 10 9 8 9 11 14 16 15 12 12 11 12 14 16 17 17 16 20 22 22 24 27 32 35 31 30 27 28 28
12 10 11 12 13 12 12 13 13 15 15 15 12 10 11 15 15 17 18 19 22 24 26 26 28 30 35 35 32 29 28 28
13 12 12 12 14 15 16 17 17 17 18 15 12 11 12 15 16 17 19 21 22 24 27 33 28 34 38 37 33 31 29 30
15 14 14 15 14 14 15 16 19 20 19 18 16 16 15 16 17 19 21 23 23 25 27 30 28 38 38 34 33 33 30 31
Wind_Direction
305 297 287 275 264 258 256 258 260 265 269 267 273 276 278 281 284 291 297 304 310 313 315 315 314 316 317 316 318 322 321 312
311 296 294 285 278 267 259 259 265 270 273 274 274 276 281 282 285 291 299 307 314 317 319 319 316 316 314 315 314 317 316 305
303 291 288 286 282 279 270 262 261 267 271 275 277 278 280 282 288 294 300 307 312 316 317 316 314 314 313 313 313 313 313 296
306 291 289 284 282 280 277 272 269 268 270 276 282 285 284 287 291 295 299 305 311 313 314 314 312 314 314 315 312 308 307 278
311 289 281 283 280 277 275 275 277 275 273 277 286 287 289 290 291 295 302 306 309 311 313 312 310 311 312 310 307 303 301 266
310 286 269 272 272 272 272 273 273 277 280 287 292 292 292 292 295 300 301 302 305 307 310 313 312 309 309 308 304 307 301 270
312 278 271 274 280 282 278 282 286 287 290 291 288 288 294 294 296 298 300 302 307 312 313 314 312 311 313 311 307 313 308 267
311 276 265 268 283 285 284 284 285 287 292 295 292 290 289 290 296 299 302 305 310 313 325 320 320 319 318 314 308 307 316 266
307 267 257 271 278 282 276 279 281 290 291 288 290 288 284 291 294 297 300 305 308 315 318 312 317 321 317 315 310 304 305 277
308 268 261 244 259 284 279 274 279 280 289 293 288 284 283 289 295 298 303 309 313 319 314 316 312 319 318 321 317 304 296 284
315 298 268 259 268 266 262 284 288 292 303 305 296 293 295 297 297 302 311 316 322 322 320 323 326 321 318 314 314 307 297 285
313 306 297 265 259 262 273 286 296 292 301 303 302 297 291 293 302 309 316 319 319 325 329 328 327 328 323 314 309 303 298 292
305 305 314 268 256 261 277 293 293 309 294 297 302 307 301 301 305 314 322 323 327 331 332 334 337 335 336 328 314 303 298 298
295 294 298 292 288 283 289 311 292 297 291 296 299 303 306 302 311 319 327 332 337 334 336 343 342 343 340 337 321 308 309 301
295 298 304 298 301 295 296 312 299 289 296 317 304 307 307 299 318 328 330 331 334 340 343 346 347 347 344 341 330 319 310 306
300 309 315 318 309 300 302 316 324 296 302 325 327 312 307 301 319 326 326 325 331 337 345 347 349 351 351 346 337 328 324 318
289 301 310 319 317 310 314 313 324 323 303 317 322 309 306 309 316 326 323 318 325 333 333 336 342 350 351 346 339 333 331 328
277 291 300 309 312 318 320 323 319 313 312 311 303 312 312 312 315 322 320 312 316 320 327 321 335 341 347 345 339 332 332 332
267 281 290 295 303 308 311 314 314 312 308 308 298 299 305 309 311 317 314 311 313 313 319 326 315 330 335 338 337 331 331 330
260 269 278 282 289 295 298 305 308 310 306 300 297 292 296 301 304 308 310 308 310 310 313 325 319 324 328 332 333 327 329 326